SL-16 R/B (24298 NORAD) Tracking and Keplerian Element Data

This shows tracking and keplerian element data for the satellite.

Feedback or suggestion? Click here.




ElementValue
Catalog24298
NameSL-16 R/B
Epoch Orbit14462
Epoch Day318.7168931
Epoch Year2018
RAAN55.2766
Inclination70.8293
Eccentricity0.0014661
Argument of Perigee146.9457
Mean Anonmoly213.2582
Mean Motion14.12400381
Decay Rate-1.01E-06
L11 24298U 96051B 18318.71689310 -.00000101 00000-0 -28594-4 0 9998
L22 24298 70.8293 55.2766 0014661 146.9457 213.2582 14.12400381144625

Live tracking and technical data element details for SL-16 R/B (NORAD 24298). SL-16 R/B can be tracked NOW for your location showing map with azimuth and elevation plus other details from your city location.

Track the satellite on the map from your city or location and see movement details for azimuth, elevation, latitude, longitude, range, height, and movement on the map or in text.







IsCatalogInMostPopularTable: catalog: 24298, numindb: 43
Update: records affected: 1



GetName: 24298 SL-16 R/B

Hit Count: updated at: Fri, 16 Nov 2018 05:21:05 GMT